This is the latest recevied weather packets stored in our database for station/object KC3HIX. If no packets are shown the sender has not sent any weather packets the latest 10 day(s).
| Time | Temp. | Humidity | Pressure | Rain* | Wind** | Luminosity | Snow |
|---|---|---|---|---|---|---|---|
| 1777451404 | 11.67° C | 80% | 1014.4 hPa | 0 mm | - | - | - |
| 1777449604 | 11.67° C | 79% | 1014.8 hPa | 0 mm | - | - | - |
| 1777449304 | 11.67° C | 79% | 1014.4 hPa | 0 mm | - | - | - |
| 1777446604 | 11.67° C | 81% | 1015.1 hPa | 0 mm | - | - | - |
| 1777446004 | 11.67° C | 81% | 1015.1 hPa | 0 mm | - | - | - |
| 1777445404 | 11.67° C | 80% | 1015.4 hPa | 0 mm | - | - | - |
| 1777444804 | 11.67° C | 78% | 1015.4 hPa | 0 mm | - | - | - |
| 1777443904 | 11.67° C | 78% | 1015.8 hPa | 0 mm | - | - | - |
| 1777443003 | 11.67° C | 78% | 1015.4 hPa | 0 mm | - | - | - |
| 1777441503 | 11.67° C | 79% | 1015.8 hPa | 0 mm | - | - | - |
| 1777439403 | 11.67° C | 80% | 1016.5 hPa | 0 mm | - | - | - |
| 1777438830 | 11.67° C | 79% | 1016.8 hPa | 0 mm | - | - | - |
| 1777438503 | 11.67° C | 79% | 1016.8 hPa | 0 mm | - | - | - |
| 1777437303 | 11.67° C | 78% | 1016.8 hPa | 0 mm | - | - | - |
| 1777436703 | 11.67° C | 79% | 1016.8 hPa | 0 mm | - | - | - |
| 1777435206 | 11.67° C | 75% | 1016.5 hPa | 0 mm | - | - | - |
| 1777434605 | 11.67° C | 75% | 1016.5 hPa | 0 mm | - | - | - |
| 1777434305 | 11.67° C | 76% | 1016.5 hPa | 0 mm | - | - | - |
| 1777434005 | 11.67° C | 77% | 1016.5 hPa | 0 mm | - | - | - |
| 1777432205 | 12.22° C | 74% | 1017.2 hPa | 0 mm | - | - | - |
| 1777431905 | 12.22° C | 75% | 1017.2 hPa | 0 mm | - | - | - |
| 1777431326 | 12.22° C | 74% | 1017.2 hPa | 0 mm | - | - | - |
| 1777431006 | 12.22° C | 74% | 1017.2 hPa | 0 mm | - | - | - |
| 1777429205 | 12.22° C | 74% | 1017.5 hPa | 0 mm | - | - | - |
| 1777426205 | 12.22° C | 73% | 1016.8 hPa | 0 mm | - | - | - |
* Rain latest hour (hover to see other rain measurements)
** Current wind speed in m/s (hover to see current wind gust speed)